Regional Weather Roundup
Issued by NWS

Home | Current Version | Previous Version | Graphics & Text | Print | Product List | Glossary On
Versions: 1 2 3 4 5 6 7 8 9 10 11 12 13 14 15 16 17 18 19 20 21 22 23 24 25 26 27 28 29 30 31 32 33 34 35 36 37 38 39 40 41 42 43 44 45 46 47 48 49 50
000
ASUS43 KMKX 190159
RWRWI

WISCONSIN REGIONAL WEATHER ROUNDUP
NATIONAL WEATHER SERVICE MILWAUKEE/SULLIVAN WI
800 PM CST THU JAN 18 2018

NOTE: "FAIR" INDICATES FEW OR NO CLOUDS BELOW 12,000 FEET WITH NO
SIGNIFICANT WEATHER AND/OR OBSTRUCTIONS TO VISIBILITY.

WIZ001-002-006>008-014>016-023>028-190300-
NORTHWEST WISCONSIN

CITY           SKY/WX    TMP DP  RH WIND       PRES   REMARKS
SUPERIOR ARPT  FAIR      27  24  89 S5        29.72F WCI  22
ASHLAND        FAIR      21  20  96 S6        29.73F WCI  13
HAYWARD        FAIR      21  18  88 CALM      29.73F
SIREN          FAIR      23  19  87 CALM      29.75F
CUMBERLAND     FAIR      25  19  80 SW8       29.74F WCI  16
RICE LAKE      FAIR      27  21  80 CALM      29.77F
CHETEK         FAIR      23  19  86 CALM      29.76F
LADYSMITH      FAIR      25  20  80 S3        29.77S
EAU CLAIRE     NOT AVBL
MENOMONIE      FAIR      32  25  74 S6        29.79F WCI  26
NEW RICHMOND   FAIR      27  22  79 S3        29.78F
OSCEOLA        FAIR      24  20  83 SE7       29.79F WCI  16
$$

WIZ003>005-009-010-017-018-190300-
NORTH CENTRAL WISCONSIN

CITY           SKY/WX    TMP DP  RH WIND       PRES   REMARKS
MANITOWISH WTR CLOUDY    19  19 100 CALM      29.72S FOG
ARBOR VITAE    FAIR      22  20  93 CALM      29.72F
WOODRUFF       FAIR      22  20  93 CALM      29.72F
RHINELANDER    FAIR      24  19  81 W6        29.74S WCI  17
EAGLE RIVER    FAIR      18  18  99 CALM      29.72S FOG
LAND O LAKES   FOG       21  19  95 CALM      29.74R VSB 3/4
PHILLIPS       FAIR      23  19  84 CALM      29.73S
TOMAHAWK       FAIR      26  20  77 CALM      29.75S
MEDFORD        FAIR      27  19  72 SW7       29.76S WCI  20
MERRILL        FAIR      25  19  78 CALM      29.76F
$$

WIZ029-030-035-036-043>047-190300-
CENTRAL WISCONSIN

CITY           SKY/WX    TMP DP  RH WIND       PRES   REMARKS
WAUSAU         FAIR      30  20  66 SW9       29.75F WCI  22
MOSINEE        MOCLDY    28  21  74 SW12      29.78F WCI  18
MARSHFIELD     FAIR      29  21  72 SW10      29.78S WCI  20
STEVENS POINT  FAIR      28  20  72 SW8       29.81F WCI  19
WAUPACA        FAIR      31  20  65 S3        29.83S
WAUTOMA        FAIR      29  20  69 SW7         N/A  WCI  22
WISC RAPIDS    FAIR      27  18  69 SW8       29.82F WCI  19
CAMP DOUGLAS   MOCLDY    32  21  64 SW8       29.83S WCI  25
$$

WIZ011>013-019>022-031-037>040-048>050-190300-
NORTHEAST WISCONSIN

CITY           SKY/WX    TMP DP  RH WIND       PRES   REMARKS
ANTIGO         FAIR      25  18  76 W5        29.76S WCI  19
SHAWANO        FAIR      31  21  66 CALM      29.80S
OCONTO         FAIR      29  20  70 SW3       29.81S
STURGEON BAY   FAIR      25  20  81 S8        29.81F WCI  16
GREEN BAY      FAIR      27  18  69 SW7       29.82S WCI  19
MANITOWOC      FAIR      30  20  66 SW12      29.83F WCI  20
APPLETON       PTCLDY    27  18  69 SW10      29.81S WCI  17
CLINTONVILLE   FAIR      30  19  64 SW5       29.81S WCI  25
OSHKOSH        FAIR      27  19  72 SW12      29.84S WCI  17
$$

WIZ032>034-041-042-053>061-190300-
SOUTHWEST WISCONSIN

CITY           SKY/WX    TMP DP  RH WIND       PRES   REMARKS
LA CROSSE      FAIR      30  21  69 S8        29.87F WCI  22
SPARTA         FAIR      31  22  67 SW5       29.86F WCI  27
VIROQUA        FAIR      28  22  79 SW13      29.86F WCI  17
BOSCOBEL       FAIR      29  19  66 SW7       29.92F WCI  22
PRAIRIE DU CHI FAIR      30  18  61 SW3       29.93S
PLATTEVILLE    FAIR      24  19  82 SW10      29.92S WCI  14
$$

WIZ056-057-062-063-064-067-068-190300-
SOUTH CENTRAL WISCONSIN

CITY           SKY/WX    TMP DP  RH WIND       PRES   REMARKS
REEDSBURG      FAIR      30  19  65 SW8       29.88S WCI  22
BARABOO/DELLS  FAIR      29  19  65 SW10      29.87S WCI  20
LONE ROCK      FAIR      26  18  71 SW3       29.92S
MINERAL POINT  FAIR      28  23  80 SW8       29.91S WCI  20
MADISON        FAIR      28  19  69 SW7       29.91S WCI  21
MIDDLETON      FAIR      30  20  66 SW9       29.91S WCI  22
WATERTOWN      NOT AVBL
MONROE         FAIR      28  19  69 SW18      29.91S WCI  16
JANESVILLE     CLEAR     27  19  74 SW7       29.94F WCI  19
$$

WIZ051-052-058>065-066-070>072-190300-
SOUTHEAST WISCONSIN

CITY           SKY/WX    TMP DP  RH WIND       PRES   REMARKS
MILWAUKEE      FAIR      29  19  66 W13G22    29.91S WCI  19
WAUKESHA       CLEAR     27  18  69 SW8       29.92S WCI  18
MILWAUKEE/TIMM CLEAR     28  16  59 SW15G22   29.91S WCI  17
RACINE         FAIR      30  19  63 SW17G28   29.93F WCI  18
BURLINGTON     FAIR      28  19  71 SW13      29.93F WCI  17
KENOSHA        FAIR      30  19  63 SW22G33   29.92F WCI  17
FOND DU LAC    FAIR      27  17  66 SW15G22   29.86S WCI  15
SHEBOYGAN      FAIR      28  19  69 SW14      29.85S WCI  17
WEST BEND      FAIR      28  19  69 SW12G17   29.88R WCI  18
JUNEAU         FAIR      24  18  76 S12       29.90S WCI  13
$$

LSZ147-162-190300-
LAKE SUPERIOR

STATION/POSITION TIME  TEMP    WIND        PRES    WAVE
                       AIR SEA DIR/SP/G            HT/PER
                 (UTC) (F)     (DEG/KT/KT) (MB)    (FT/S)
DEVILS ISLAND    0100   34     280/ 13/ 14 1007.5R
SAXON HARBOR     0140   24     200/  4/  4 1007.1S
$$

LMZ867-665-643>646-190300-
LAKE MICHIGAN

STATION/POSITION TIME  TEMP    WIND        PRES    WAVE
                       AIR SEA DIR/SP/G            HT/PER
                 (UTC) (F)     (DEG/KT/KT) (MB)    (FT/S)
NORTHPORT PIER   0140   31     210/ 16/ 32 1008.8S
KEWAUNEE LAKESHO 0130   28     240/  4/  6 1009.8R
SHEBOYGAN LAKESH 0100   30     230/ 13/ 16 1011.7S
PORT WASHINGTON  0140   30     240/  7/ 14 1013.2S
MILWAUKEE LAKESH 0130   30     240/ 16/ 20   N/A
KENOSHA   LAKESH 0100   31     220/ 16/ 21 1014.2
$$

TC  - TEMPERATURE IN CELSIUS
VSB - VISIBILITY IN STATUTE MILES
WCI - WIND CHILL INDEX
HX  - HEAT INDEX





USA.gov is the U.S. government's official web portal to all federal, state and local government web resources and services.